Weather in Ust-Miasskoye

Russia / Kurgan Oblast     56°02′35″N   64°28′26″E
temp.,
°C
wind,
m/s
gust,
m/s
humid.,
%
clouds,
%
prec.,
mm/h
press.,
hPa
HPBL,
m
17 june, thu
thu1723:00+19wnw3375100 0.0 101235
02:00+17ssw347060 0.0 101160
05:00+17sw4870100 0.0 1010144
08:00+23ssw4557100 0.0 1008224
11:00+28wsw71142100 0.0 10071322
14:00+27w4650100 0.0 1005735
17:00+23ene226573 0.1 100250
20:00+17nw2588100 3.4 1004167
18 june, fri
fri1823:00+16nw3696100 3.8 1005197
02:00+16nnw61293100 0.8 1004522
05:00+14nne7128961 0.9 1007776
08:00+13n8126869 0.0 1010894
11:00+16n911395 0.0 10121790
14:00+18n911335 0.0 10132347
17:00+18nnw8113645 0.0 10142829
20:00+15nnw595042 0.0 1015286
19 june, sat
sat1923:00+10nw47558 0.0 1016110
02:00+9nw411715 0.2 1017203
05:00+8nw39745 0.2 1018163
08:00+15nw465086 0.0 1018427
11:00+17wnw674593 0.0 10171986
14:00+12w5880100 0.2 1016705
17:00+12wnw4787100 0.4 1015657
20:00+13wnw358384 0.1 1014412
20 june, sun
sun2023:00+11wsw349481 0.1 101461
02:00+12sw2489100 0.0 1012117
05:00+12ssw3596100 0.4 1011146
08:00+15w479041 0.3 1009417
11:00+20nw7107044 0.6 10071172
14:00+24nw10133770 0.4 10072281
17:00+21nnw1014455 0.4 10082011
20:00+17n813483 0.0 10111173
21 june, mon
mon2123:00+12wnw511605 0.0 1012214
02:00+13nnw817440 0.0 10131152
05:00+10nnw7146014 0.0 1015762
08:00+13nnw8116079 0.0 1016878
11:00+18nnw810515 0.0 10161458
14:00+19n81144100 0.0 10162518
17:00+18n61050100 0.0 10171628
20:00+17nnw48585 0.0 1017290